Location: Buchdorf
(48.7842°N, 10.8275°E)
Time: 10:13:14
(UTC+00:00)

Cosmos 540 Rocket - Pass Details

Date: 09 April 2020
Orbit: 741 x 753 km, 74.1° (Epoch: 22 May)

Event Time Altitude Azimuth Distance (km) Brightness Sun altitude
Rises 19:45:29 0° 342° (NNW) 3,215 7.6 -16.7°
Reaches altitude 10° 19:48:06 10° 352° (N) 2,285 6.6 -17.0°
Maximum altitude 19:52:45 33° 56° (NE) 1,253 4.4 -17.7°
Enters shadow 19:54:28 27° 92° (E) 1,433 4.4 -17.9°
